Tuesday, June 19, 2018, 12:58 AM EDT
Back to Local

KLCI, Laconia, Laconia Municipal Airport

Location: Laconia, NH, United States Lat: 43.567
Local Time: 12:58 AM EDT ( 4:58 GMT) Lon: -71.417
Time Zone: US/Eastern Elev: 544 ft

Show me the last for .
Show Decoded

2018-06-18 23:56 METAR KLCI 190356Z AUTO 24008KT 10SM -RA SCT048 OVC070 23/21 A2961 RMK AO2
                 RAE0258B19 SLP034 P0001 T02280211 403110161 =
2018-06-18 22:56 METAR KLCI 190256Z AUTO 21015G20KT 10SM -RA FEW070 24/21 A2962 RMK AO2 RAB47
                 SLP037 P0000 60000 T02390206 58016 =
2018-06-18 21:56 METAR KLCI 190156Z AUTO 22011KT 10SM FEW065 SCT080 24/21 A2964 RMK AO2 SLP045
                 T02440206 =
2018-06-18 20:56 METAR KLCI 190056Z AUTO 21011KT 10SM SCT060 OVC110 24/21 A2965 RMK AO2 SLP050
                 T02390206 =
2018-06-18 19:56 METAR KLCI 182356Z AUTO 21009KT 10SM FEW120 26/22 A2967 RMK AO2 SLP056 60000
                 T02560222 10311 20239 56012 =
2018-06-18 18:56 METAR KLCI 182256Z AUTO 03004KT 10SM FEW055 SCT100 26/22 A2969 RMK AO2 LTG DSNT
                 NE AND SE RAB02E21 SLP065 P0000 T02560217 =
2018-06-18 17:56 METAR KLCI 182156Z AUTO 23006KT 10SM BKN060 BKN075 27/22 A2967 RMK AO2 LTG DSNT
                 ALQDS SLP057 T02720217 =
2018-06-18 16:56 METAR KLCI 182056Z AUTO 24008KT 10SM FEW060 28/23 A2970 RMK AO2 LTG DSNT NE AND
                 S RAB20E44 SLP067 P0000 60000 T02830233 56024 =
2018-06-18 15:56 METAR KLCI 181956Z AUTO 21009KT 10SM CLR 30/22 A2971 RMK AO2 SLP070 T03000217 =
2018-06-18 14:56 METAR KLCI 181856Z AUTO 20013G18KT 10SM CLR 30/21 A2974 RMK AO2 SLP079 T03000211
                 =
2018-06-18 13:56 METAR KLCI 181756Z AUTO 23011KT 7SM CLR 31/21 A2977 RMK AO2 SLP091 T03060211
                 10306 20200 58025 =
2018-06-18 12:56 METAR KLCI 181656Z AUTO 23012KT 10SM CLR 30/21 A2980 RMK AO2 SLP099 T03000206 =
2018-06-18 11:08 METAR KLCI 181508Z AUTO 22010KT 10SM FEW002 28/19 A2984 RMK AO2 =
2018-06-18 09:56 METAR KLCI 181356Z AUTO 21006KT 10SM FEW003 25/17 A2988 RMK AO2 SLP128 T02500172
                 =
2018-06-18 09:49 METAR KLCI 181349Z AUTO 20008KT 10SM FEW002 24/17 A2988 RMK AO2 =
2018-06-18 08:56 METAR KLCI 181256Z AUTO 24006KT 9SM CLR 24/16 A2990 RMK AO2 SLP134 T02390161 =
2018-06-18 07:56 METAR KLCI 181156Z AUTO 26006KT 10SM CLR 20/15 A2992 RMK AO2 SLP141 T02000150
                 10200 20172 56015 =
2018-06-18 06:56 METAR KLCI 181056Z AUTO 24005KT 10SM CLR 19/14 A2993 RMK AO2 SLP144 T01890144 =
2018-06-18 05:56 METAR KLCI 180956Z AUTO 28004KT 9SM CLR 18/14 A2994 RMK AO2 SLP147 T01830139 =
2018-06-18 04:56 METAR KLCI 180856Z AUTO 26005KT 10SM CLR 18/14 A2996 RMK AO2 SLP155 T01830139
                 56017 =
2018-06-18 03:56 METAR KLCI 180756Z AUTO 24006KT 10SM CLR 18/14 A2997 RMK AO2 SLP157 T01830139 =
2018-06-18 02:56 METAR KLCI 180656Z AUTO 27005KT 10SM CLR 18/13 A2999 RMK AO2 SLP164 T01830133 =
2018-06-18 01:56 METAR KLCI 180556Z AUTO 26003KT 10SM CLR 17/13 A3001 RMK AO2 SLP173 T01720133
                 10244 20161 58008 =

Support USWX by starting your Amazon purchase here.